Фрайбург

Германия     47°59′22″N   7°49′46″E
темп.,
°C
ветер,
м/с
пор.,
м/с
влажн.,
%
обл.,
%
осадки,
мм/ч
давл.,
гПа
погр.,
м
12 мая, ср
ср1223:00+10ююз3495100 2.5 1014177
02:00+9ююз369598 3.3 1015139
05:00+9ю469464 0.3 1015161
08:00+9ююз358946 0.3 1015297
11:00+12зюз327413 0.1 1014842
14:00+15з2262100 0.5 10121406
17:00+15юз1163100 0.6 10111126
20:00+12в227985 1.0 101013
13 мая, чт
чт1323:00+8юв218742 0.0 101115
02:00+7ююв1186100 0.0 101012
05:00+7ююв119080 0.1 100912
08:00+10юз248584 0.2 1010224
11:00+10ююз8108394 0.3 1010918
14:00+7ююз7988100 0.4 1012676
17:00+11юз246594 0.1 10101104
20:00+10юз358199 0.1 1009158
14 мая, пт
пт1423:00+7ююв2283100 0.0 101029
02:00+7ю228621 0.0 101031
05:00+6ююв22895 0.0 101023
08:00+9юз257920 0.0 1010357
11:00+13юз45725 0.3 1010835
14:00+15юз346435 1.6 10091265
17:00+14ююз5672100 2.3 10091207
20:00+11ю4886100 3.6 1010185
15 мая, сб
сб1523:00+7ююв359094 0.0 101293
02:00+7ю499061 0.1 1012232
05:00+7ююз5118927 0.1 1011404
08:00+8ююз5889100 0.3 1012517
11:00+9ююз488897 0.3 1012694
14:00+10ю348440 1.1 1011670
17:00+12ююз5779100 0.8 10101116
20:00+10ю478735 1.1 1010356
16 мая, вс
вс1623:00+9ююз6138896 0.1 1011661
02:00+8ююз5895100 1.6 1012373
05:00+8ююз5991100 0.4 1012359
08:00+9ююз4791100 1.0 1012363
11:00+12ююз447798 0.3 1011916
14:00+9ю2592100 1.9 1012350
17:00+10ююв259297 0.6 1011377
20:00+11ююз379039 0.6 1011354